GFSSGP_prec_cloud_195.txt.gz
Cloud_Cover
0 0 0 0 0 0 5 4 5 5 2 5 100 100 95 100 93 98 99 100 100 100 100 100 89 100 32 5 0 4 0 1 0 0 3 0 0 0 0 0 0 2 25 0 0 0 0 0 0
5 0 0 3 0 2 4 4 5 1 0 0 92 100 86 83 91 99 84 100 100 100 100 98 90 23 74 4 2 0 0 0 0 26 7 1 0 9 0 0 0 0 0 0 0 0 0 0 0
5 1 0 0 0 0 5 5 2 4 0 1 9 100 100 100 94 91 100 94 100 100 52 21 5 2 4 0 1 0 0 0 0 0 0 0 0 4 0 0 0 0 0 4 3 0 0 0 0
97 5 1 0 0 0 1 5 5 1 0 2 0 5 100 49 84 30 10 100 94 98 100 93 21 5 5 4 0 0 2 0 0 0 0 5 0 0 3 0 0 0 8 0 0 0 0 0 0
100 97 7 0 3 0 0 3 5 4 5 0 0 0 14 96 40 5 5 5 21 5 58 100 100 24 5 25 5 6 5 4 4 5 5 0 1 0 0 0 0 0 1 21 4 0 0 0 2
100 99 72 5 0 0 0 0 0 4 5 0 0 0 4 4 57 8 5 8 22 20 18 30 100 63 5 5 25 58 27 5 5 5 5 1 2 1 0 4 5 4 0 1 2 0 5 0 0
100 80 95 51 5 2 2 1 0 0 0 5 5 0 22 7 5 1 12 43 100 100 100 100 100 100 100 63 81 100 98 95 99 70 6 5 4 1 5 16 25 5 5 4 5 75 5 4 0
100 80 96 73 6 5 5 5 2 0 0 0 1 4 2 25 62 18 5 5 48 100 100 100 100 26 31 67 91 98 32 97 97 100 100 100 91 100 100 100 100 100 100 100 91 7 0 0 0
100 99 97 97 35 5 5 5 5 4 3 0 0 0 0 0 5 95 11 0 0 2 36 65 77 99 55 14 32 41 12 12 56 89 100 99 100 72 23 38 64 97 94 82 5 5 17 0 0
93 100 100 100 100 87 35 5 5 5 5 2 0 0 0 0 0 5 10 5 4 5 0 0 2 2 10 33 50 68 5 1 4 5 3 11 18 18 68 22 9 11 6 5 5 25 5 3 0
100 100 100 100 100 55 5 5 5 3 5 0 0 0 0 1 5 5 1 21 5 5 5 5 4 1 2 19 59 92 64 23 7 0 27 6 57 89 95 95 41 8 4 3 2 12 14 5 14
19 100 71 5 3 14 8 5 4 4 5 0 0 5 2 0 0 5 5 0 5 4 4 5 5 30 35 42 48 2 54 97 77 58 83 100 100 100 100 100 93 6 6 1 0 0 1 9 37
6 78 79 5 2 5 86 94 9 11 1 5 4 3 4 1 1 4 0 0 5 16 39 49 18 100 100 50 29 5 2 14 98 87 100 100 99 100 100 100 100 71 80 72 66 88 11 5 5
100 11 81 9 5 0 11 100 100 82 0 0 5 5 8 38 18 5 2 5 5 87 79 100 90 75 57 87 21 0 13 17 51 28 24 81 82 60 44 71 63 90 75 76 76 99 22 5 5
93 21 100 75 0 0 4 5 9 91 5 2 0 5 5 5 5 5 5 5 5 4 4 6 74 98 97 77 73 97 19 73 38 43 48 50 58 60 60 51 76 100 85 57 45 13 97 40 26
15 16 1 11 6 0 0 0 0 3 5 5 3 5 5 5 5 5 5 5 5 5 5 4 68 91 49 93 100 98 100 100 100 100 87 29 39 46 89 4 5 9 24 23 62 53 44 47 100
5 0 80 8 0 0 0 0 0 0 0 0 0 0 1 0 0 0 0 0 1 4 2 2 4 11 68 88 80 60 74 92 63 63 40 24 5 5 26 5 5 5 5 32 8 5 61 33 18
0 0 0 0 0 0 0 0 0 0 0 0 0 0 0 0 0 0 0 1 4 5 0 4 0 4 25 25 30 80 44 5 5 5 56 99 98 99 100 30 26 84 95 87 21 24 93 96 68
0 0 0 0 0 0 0 0 0 0 0 0 0 0 0 0 0 0 0 0 0 0 5 5 0 0 0 0 0 0 4 5 5 87 93 14 5 44 28 11 31 58 87 98 100 100 100 100 100
0 0 0 0 0 0 0 0 0 0 0 1 2 5 2 2 0 0 0 0 0 0 0 0 0 0 0 0 0 0 0 0 0 0 0 5 63 61 76 89 100 100 100 100 94 92 100 100 99
28 36 58 41 4 3 2 3 4 19 97 90 87 57 25 18 5 4 1 0 0 0 0 0 0 0 0 0 0 0 0 0 0 0 0 0 0 0 0 0 0 0 0 4 3 7 38 100 100
100 100 90 21 5 5 6 5 86 83 66 80 79 38 84 27 5 5 0 0 0 0 0 0 0 0 0 0 1 5 4 0 0 0 0 0 0 0 0 0 0 0 0 0 0 1 6 61 100
58 64 36 65 62 39 44 5 5 40 91 22 6 5 5 4 1 0 0 0 0 0 0 0 0 0 0 0 5 5 5 5 5 3 0 0 0 0 0 0 0 0 0 0 0 0 0 11 62
0 0 0 0 0 0 0 0 1 2 3 3 0 0 0 0 0 0 0 0 0 0 0 0 0 0 0 0 0 0 0 0 0 0 0 0 0 0 0 0 0 0 0 0 0 0 0 10 17
0 0 0 0 0 0 0 0 0 0 0 0 0 0 0 0 0 0 0 0 0 0 0 0 0 0 0 0 0 0 0 0 0 0 0 0 0 0 0 0 0 0 0 0 0 0 0 0 0
0 0 0 0 0 0 0 0 0 0 0 0 0 0 0 0 0 0 0 0 0 0 0 0 0 0 0 0 0 0 0 0 0 0 0 0 0 0 0 0 0 0 0 0 0 0 0 0 0
0 0 0 0 0 0 0 0 0 0 0 0 0 0 0 0 0 0 0 0 0 0 0 0 0 0 0 0 0 0 0 0 0 0 0 0 0 0 0 0 0 0 0 0 0 0 0 0 0
0 0 0 0 0 0 0 0 0 0 0 0 0 0 0 0 1 0 0 1 0 0 0 4 5 0 0 0 0 0 0 0 0 0 0 0 0 0 0 0 0 0 0 0 0 0 0 0 0
0 0 0 0 0 0 0 0 0 0 0 0 0 2 99 100 74 54 11 31 40 15 5 13 24 0 0 0 0 0 0 0 0 0 0 0 0 0 0 0 0 0 0 0 2 0 0 1 51
0 0 0 0 0 0 2 1 0 0 0 0 0 0 26 100 97 61 6 82 83 56 5 5 5 0 0 0 0 0 0 0 0 0 0 0 0 0 6 23 4 0 0 17 100 98 98 100 100

GFSSGP_prec_cloud_198.txt.gz
Cloud_Cover
1 3 5 55 7 5 4 0 0 4 1 4 100 100 100 79 92 100 100 100 100 100 100 100 100 92 100 99 83 5 2 1 0 0 0 0 0 0 0 0 0 2 18 2 0 0 0 0 0
0 0 0 86 5 5 3 1 0 4 0 0 100 100 98 97 66 94 16 57 100 80 100 100 100 78 17 5 56 5 4 0 0 0 0 0 1 0 0 0 0 6 5 0 0 0 0 0 0
5 0 0 5 16 5 5 0 0 1 5 0 10 100 97 50 34 40 49 5 5 13 48 82 67 100 10 5 2 0 4 0 0 1 0 0 0 0 0 3 1 0 0 0 0 5 5 2 0
5 5 0 0 12 5 5 1 0 0 1 2 0 1 100 100 39 4 17 56 5 5 5 40 5 5 5 1 0 0 0 0 0 3 4 0 0 0 3 3 0 0 0 4 0 0 3 1 4
92 7 5 0 2 42 5 0 0 0 0 0 0 0 0 95 96 5 5 5 4 19 71 9 5 21 4 5 2 4 5 4 3 0 0 0 0 3 0 1 0 1 7 6 34 4 0 3 1
100 90 8 9 2 24 6 5 0 0 0 0 2 0 0 0 75 60 5 5 5 5 15 14 12 26 100 98 49 3 22 56 10 6 5 2 0 0 0 0 0 0 8 5 9 5 0 6 87
100 100 34 9 0 34 49 5 5 1 0 0 5 0 0 0 0 4 52 7 5 5 6 71 84 87 55 98 100 67 9 25 62 55 41 67 90 74 51 69 24 3 5 33 10 8 44 84 67
100 100 100 6 5 5 84 58 5 4 0 0 0 0 0 0 0 4 5 18 82 35 21 28 54 60 60 83 100 94 99 100 100 97 43 17 5 67 100 100 100 100 100 100 93 36 79 100 44
100 100 100 61 5 5 5 86 52 5 2 0 0 0 0 0 2 5 5 2 0 1 6 8 18 53 14 5 12 30 18 5 5 5 5 13 4 4 4 32 73 6 45 66 38 5 5 5 5
100 100 100 100 11 5 5 84 47 5 5 2 0 0 0 0 0 0 5 5 2 0 0 0 0 0 0 1 4 5 6 5 4 1 2 4 4 4 0 0 0 4 11 12 22 5 5 30 4
100 100 100 100 93 16 7 10 5 12 35 5 4 0 0 0 0 0 0 0 1 0 0 0 0 0 0 0 0 0 36 79 61 26 1 0 0 0 0 3 2 64 100 98 92 39 87 41 41
100 99 100 46 100 94 100 91 89 56 4 57 24 8 41 69 18 5 2 0 1 0 0 0 0 0 0 11 1 2 9 98 14 95 44 75 85 68 69 81 98 65 99 100 100 100 100 100 96
92 100 100 100 100 100 100 100 96 91 5 18 20 65 14 5 5 5 5 5 16 26 12 5 5 5 10 79 84 42 43 7 40 43 47 81 54 63 81 100 100 100 100 100 100 100 96 99 48
76 100 67 100 100 100 100 100 100 26 5 5 87 90 9 2 2 1 0 5 5 81 49 4 5 5 99 62 74 80 71 95 27 21 21 36 45 75 93 64 72 36 42 98 99 51 62 38 46
5 45 100 42 100 100 8 52 98 4 5 5 12 6 5 5 3 2 5 5 5 2 6 5 27 5 98 100 100 66 73 44 38 88 97 48 83 44 66 8 5 5 2 2 5 5 4 5 5
5 5 65 5 38 55 80 50 5 5 5 0 1 4 5 5 5 4 1 1 1 0 0 1 1 5 72 100 73 91 54 64 43 95 95 81 45 16 26 14 5 5 5 4 5 11 22 80 63
5 5 2 0 0 0 0 4 3 4 3 4 22 63 6 0 2 0 5 4 4 5 5 5 4 1 34 100 69 46 92 26 22 34 69 30 80 39 16 5 5 5 5 5 4 5 6 65 48
0 2 4 3 0 0 0 0 0 0 4 0 0 0 0 0 0 0 0 0 0 0 0 0 0 0 29 95 66 0 3 6 0 0 0 5 20 69 70 18 6 8 5 5 5 3 5 5 5
0 0 0 3 0 0 0 0 0 0 0 0 0 0 0 0 0 0 0 0 0 0 0 0 0 49 19 17 0 0 0 0 0 0 0 0 0 0 0 1 4 1 14 24 4 36 34 55 7
0 0 0 0 0 0 0 0 0 0 0 0 0 0 0 0 0 0 0 0 0 0 3 0 0 1 1 0 0 0 0 0 0 0 0 0 0 0 0 0 0 0 0 0 0 0 0 0 0
0 0 0 0 0 0 0 0 0 0 0 0 0 2 4 3 1 3 4 4 4 3 2 1 0 0 0 0 0 0 0 0 0 0 0 0 0 0 0 0 0 0 0 0 0 0 0 0 0
4 3 4 4 3 36 41 38 3 17 4 16 54 91 84 73 49 24 6 5 4 0 0 0 0 0 0 0 0 0 0 0 0 0 0 0 0 0 0 0 0 0 0 0 0 0 0 0 0
100 100 100 100 100 100 100 87 100 81 78 35 60 36 83 80 56 5 5 5 4 0 0 0 0 0 0 0 0 0 0 0 1 0 1 0 0 0 0 0 0 0 0 0 0 0 0 0 0
40 56 87 79 92 95 63 77 94 9 100 96 51 15 9 5 5 5 5 5 4 3 0 0 0 0 0 0 0 0 0 0 0 0 0 0 0 0 0 0 0 0 0 0 0 0 0 0 0
0 0 0 2 3 4 2 5 5 0 5 5 5 5 4 0 0 0 0 0 0 0 0 0 0 0 0 0 0 0 0 0 0 0 0 0 0 0 0 0 0 0 0 0 0 0 0 0 0
0 0 0 0 0 0 0 0 0 0 0 0 0 0 0 0 0 0 0 0 0 0 0 0 0 0 0 0 0 0 0 0 0 0 0 0 0 0 0 0 0 0 0 0 0 0 0 0 0
0 0 0 0 0 0 0 0 0 0 0 0 0 0 5 1 1 0 0 0 0 0 0 0 0 0 1 0 0 0 0 0 0 0 0 0 0 0 0 0 0 0 0 0 0 0 0 0 0
0 0 0 0 1 0 0 0 0 0 4 0 0 1 4 8 94 72 89 19 39 5 6 0 4 2 2 2 0 1 2 2 0 0 0 0 0 0 0 0 0 0 0 0 0 0 0 0 0
0 0 0 0 0 0 0 0 0 0 0 4 1 5 4 12 86 100 98 95 92 59 50 41 31 86 47 5 5 4 1 0 0 0 0 0 0 0 0 0 1 1 2 0 10 4 0 10 20
0 0 0 0 0 3 5 1 0 3 8 1 27 86 5 22 5 48 39 78 98 100 100 100 37 5 5 5 5 0 0 0 0 0 0 0 0 0 0 2 14 9 7 21 36 12 98 14 96

GFSSGP_prec_cloud_204.txt.gz
Cloud_Cover
100 32 5 5 33 100 100 100 5 30 71 24 78 94 100 100 100 100 100 100 63 6 29 76 60 92 79 20 5 4 5 5 5 3 0 0 0 0 0 0 0 0 0 0 2 5 5 4 0
100 100 6 5 79 100 100 100 100 49 97 11 99 80 100 100 100 100 100 100 100 39 80 100 100 100 100 100 80 2 96 42 5 5 0 1 0 0 0 0 0 10 8 0 5 0 1 5 3
100 100 86 5 5 100 88 69 100 21 2 38 46 34 58 100 100 100 100 100 100 53 5 77 85 78 62 100 99 5 67 5 31 63 37 2 4 0 1 4 6 7 0 0 4 4 0 5 5
100 100 100 100 100 99 100 94 98 23 5 2 91 2 29 100 100 100 100 100 97 41 100 81 100 100 100 50 100 100 98 73 12 5 5 5 11 5 5 5 5 5 2 0 5 5 5 58 93
100 100 100 100 100 90 90 49 5 46 11 75 35 4 2 99 100 100 100 100 86 65 100 100 100 100 100 5 68 59 90 47 19 62 10 1 5 5 39 68 24 6 5 4 5 55 43 31 51
100 100 100 100 100 99 97 71 90 11 84 31 67 14 1 4 25 100 100 32 5 22 56 23 27 7 8 8 14 9 82 84 48 31 89 16 26 5 88 37 5 5 39 100 100 100 69 100 78
100 100 100 100 64 74 100 92 70 4 89 71 6 98 3 6 0 45 100 100 66 42 7 5 5 5 5 5 4 1 5 5 60 92 98 74 13 5 5 6 26 72 100 53 31 5 5 40 48
97 64 100 100 100 100 98 100 7 4 1 64 1 5 13 4 0 0 8 53 97 100 100 100 91 7 1 4 4 0 0 0 5 75 46 99 100 100 100 100 100 100 91 18 26 40 5 32 9
100 92 100 100 100 100 100 92 17 1 4 5 5 0 6 14 2 0 4 13 79 2 1 59 100 100 100 29 8 2 4 0 0 1 2 5 56 81 71 87 94 82 13 1 0 0 0 0 0
100 100 100 100 100 100 97 99 40 95 11 50 3 0 1 5 7 5 2 5 39 48 26 49 0 28 33 62 1 3 5 5 5 5 5 5 1 0 2 0 0 0 0 0 0 0 0 0 0
98 100 100 100 100 100 82 100 100 100 80 8 5 0 1 71 7 33 61 5 100 100 100 94 56 0 10 4 0 0 0 0 0 0 1 0 0 0 0 0 0 0 0 0 0 53 0 0 0
100 84 83 100 100 100 100 100 100 100 98 74 5 5 5 100 78 5 5 5 4 0 0 0 0 0 0 37 51 4 0 4 5 3 0 0 46 88 51 4 15 58 10 96 96 0 4 12 33
100 100 87 100 100 100 100 100 100 100 100 100 20 58 93 100 56 21 11 5 4 0 0 3 0 2 3 0 54 29 0 100 7 81 78 4 0 16 0 76 98 69 90 78 31 8 45 4 3
100 99 90 100 100 100 100 100 99 100 100 100 88 100 100 100 87 81 39 6 5 0 5 82 42 5 5 5 0 4 0 1 18 59 3 6 37 0 2 94 100 83 68 73 20 5 5 7 5
68 100 94 100 100 100 100 100 100 60 62 100 100 99 98 100 95 96 47 40 100 57 5 19 97 37 97 98 32 1 0 6 16 98 18 100 100 100 79 43 8 48 5 5 10 42 59 51 20
19 52 12 100 100 88 100 100 100 50 100 100 100 100 100 100 100 100 100 100 100 100 12 50 20 4 5 10 6 0 30 46 10 1 0 90 100 93 53 100 44 10 2 3 0 3 2 0 1
0 0 2 100 100 34 100 100 56 100 100 69 98 100 100 100 100 100 100 100 100 92 92 5 56 0 0 3 2 4 2 0 0 0 1 4 6 12 12 2 1 0 0 0 0 0 0 0 0
5 73 3 83 68 47 75 100 66 17 100 100 100 100 100 100 100 70 100 98 100 100 76 13 0 0 0 2 0 50 0 0 100 52 0 20 9 0 0 2 1 0 0 0 0 0 0 0 0
34 0 4 32 6 57 96 100 100 100 100 100 100 100 100 100 100 100 100 77 26 81 37 97 0 0 0 0 0 61 0 0 0 0 0 0 0 0 0 0 0 0 0 0 0 0 0 0 0
4 82 90 100 48 0 73 100 98 22 23 98 100 100 100 99 100 100 46 56 28 79 93 5 0 0 0 0 0 10 60 30 0 0 0 0 0 0 0 0 0 0 0 0 0 0 0 0 0
1 51 97 2 0 2 0 0 0 3 9 100 100 100 98 6 1 2 30 85 100 100 52 0 30 19 0 8 9 0 0 1 0 0 0 0 0 0 0 0 0 0 0 0 0 0 0 0 0
0 0 0 0 0 0 0 0 0 73 97 5 5 4 2 28 98 95 19 4 0 0 0 0 0 0 6 55 90 5 38 10 0 0 0 3 1 0 0 0 0 0 0 0 0 0 0 0 0
0 0 0 0 0 0 0 0 0 18 39 3 6 8 3 3 7 97 84 0 0 0 0 2 5 2 0 0 0 0 86 92 14 9 0 0 0 0 0 0 0 0 0 0 0 0 0 0 0
0 0 0 0 0 0 1 0 14 100 27 95 29 5 71 63 8 46 30 3 3 3 4 5 5 5 5 5 2 0 0 0 0 0 0 0 0 0 0 0 0 0 0 0 0 0 0 0 0
1 0 0 0 3 48 25 13 82 100 57 5 4 2 71 45 63 66 65 91 97 72 63 25 5 1 0 0 0 0 0 0 2 0 0 0 0 0 0 0 0 0 0 0 0 0 0 0 0
0 0 0 2 3 17 5 24 98 100 50 5 5 21 48 5 40 11 68 66 52 98 52 74 100 29 0 0 0 0 0 2 2 2 0 0 0 4 0 0 0 0 0 0 0 0 0 0 0
3 3 1 0 0 0 0 1 84 100 19 3 7 4 8 5 14 5 5 61 79 36 5 5 7 58 42 50 5 2 2 0 4 5 5 6 52 3 0 0 0 0 0 0 0 0 0 0 0
0 0 0 0 0 0 0 3 95 95 100 83 96 93 82 40 29 3 13 15 16 63 85 100 100 73 2 71 80 41 99 76 45 70 100 100 94 15 4 7 9 5 2 0 0 0 0 0 0
28 2 2 4 12 4 4 0 25 70 56 85 100 100 81 82 100 77 36 58 5 2 1 0 7 18 81 100 93 100 91 91 100 84 42 98 97 98 99 100 5 0 0 0 0 0 0 0 1
0 0 0 0 0 5 3 0 0 48 6 90 70 5 5 5 5 5 2 2 2 1 0 0 7 47 82 87 5 11 43 91 92 100 39 35 85 100 99 92 8 0 2 1 0 0 2 6 74

GFSSGP_prec_cloud_207.txt.gz
Cloud_Cover
50 5 5 1 3 11 50 36 100 93 98 97 100 100 100 100 100 100 100 100 100 100 59 18 100 98 100 100 100 41 13 0 2 0 0 0 0 0 0 0 0 0 0 0 0 0 0 0 0
100 22 4 5 4 24 83 16 100 98 96 33 100 100 100 100 100 100 100 100 100 100 100 68 96 72 96 95 100 100 100 2 29 13 3 0 0 0 0 0 0 0 0 0 0 0 0 2 0
100 80 20 3 5 4 50 100 100 65 79 50 89 100 100 100 100 61 100 100 100 100 100 100 98 83 35 40 14 100 100 38 4 3 0 0 0 0 0 3 0 0 0 0 0 0 0 0 3
100 100 92 5 97 6 76 92 100 100 99 94 100 100 100 100 100 66 100 100 100 100 100 100 72 100 88 100 74 14 90 58 9 90 98 94 11 4 0 0 0 5 5 0 2 0 0 5 43
100 100 100 100 99 82 46 34 100 100 100 100 80 86 87 100 100 100 100 100 100 100 100 100 100 100 95 57 85 9 42 93 100 99 95 5 5 5 5 5 5 5 3 5 3 5 100 100 90
100 100 100 100 24 34 37 98 100 100 60 100 99 5 15 100 100 100 100 100 100 100 100 100 99 24 24 70 95 12 5 19 5 5 5 83 23 14 100 88 11 5 5 11 5 7 100 98 5
100 100 100 100 12 32 62 99 100 59 96 100 90 3 14 8 48 100 100 100 100 100 100 100 97 5 5 7 38 52 94 72 5 5 5 19 87 67 24 48 88 93 100 100 100 100 100 67 17
98 100 100 100 80 56 75 100 98 100 97 8 83 5 1 93 27 7 100 100 100 100 100 100 71 32 9 8 6 2 5 33 5 5 5 5 5 19 25 5 33 99 100 100 100 98 8 4 0
99 88 100 100 100 23 90 82 58 78 100 100 72 94 4 1 4 0 22 97 96 4 21 100 100 100 95 100 100 100 90 65 42 47 5 3 2 4 5 2 0 0 0 0 0 0 0 0 0
27 100 100 95 100 92 68 48 34 64 87 73 4 1 5 5 2 5 53 1 16 5 30 2 2 1 0 0 0 36 99 100 100 84 13 4 0 0 0 0 0 0 0 0 0 0 0 0 0
5 78 100 89 95 100 100 75 6 71 84 77 100 66 0 7 6 7 5 83 5 4 8 5 2 0 0 0 0 0 0 0 0 0 0 0 0 0 0 0 0 0 0 0 0 0 0 0 0
1 73 100 48 69 100 100 95 20 100 100 100 100 86 74 98 86 63 97 89 38 5 3 100 24 0 0 0 0 4 0 0 0 0 0 0 0 0 0 0 5 9 15 99 18 0 0 5 5
74 20 100 100 100 100 93 100 100 100 100 92 73 6 43 100 100 100 76 100 47 4 0 5 61 41 0 0 0 0 0 0 0 0 2 0 0 25 48 100 100 100 100 100 100 90 5 17 22
4 79 96 100 100 100 100 100 88 100 100 100 99 81 100 100 100 90 79 100 88 5 0 4 4 39 16 0 0 7 56 59 0 28 3 68 35 36 100 100 100 100 100 100 100 100 98 64 51
8 100 39 62 100 100 90 100 100 100 91 100 100 97 100 100 100 98 100 100 100 34 17 4 0 11 100 42 3 0 0 0 0 6 1 24 15 75 100 100 100 100 100 100 100 100 100 100 98
0 1 2 100 100 100 100 100 100 100 100 100 100 100 100 100 100 97 90 100 100 100 100 55 34 47 88 100 40 5 5 0 7 15 1 3 1 9 86 100 98 100 100 100 100 100 100 100 57
0 0 22 52 100 100 100 100 99 100 100 100 100 100 100 100 63 100 100 100 100 100 100 98 93 73 97 100 99 5 5 3 21 6 0 0 4 79 65 100 99 3 77 58 59 10 2 0 0
0 57 98 49 54 7 64 100 53 100 100 100 98 100 100 17 43 100 100 100 100 100 78 100 97 47 100 98 13 5 5 13 8 1 58 11 4 1 4 20 17 4 5 2 0 0 0 0 0
100 99 8 100 97 92 8 70 100 97 100 100 100 100 100 35 7 95 100 100 100 100 100 100 38 5 5 4 3 17 70 6 93 100 1 0 0 0 0 0 0 0 0 0 0 0 0 0 0
8 1 45 100 56 15 52 100 100 100 98 69 38 100 100 95 5 7 97 6 57 5 85 100 100 100 99 28 100 82 3 42 100 97 24 63 100 99 22 3 4 0 0 0 0 0 0 0 0
7 87 77 23 5 97 100 68 100 100 100 100 100 90 14 5 55 98 100 54 65 61 16 4 26 90 98 100 100 49 49 5 5 4 95 100 79 40 83 50 0 0 0 0 0 0 0 0 0
0 0 0 0 1 5 21 3 7 100 100 100 46 86 11 100 100 7 19 0 100 100 100 100 85 37 47 45 20 4 2 2 0 19 100 89 0 0 0 0 0 0 0 0 0 0 0 0 0
0 0 1 5 1 0 0 0 0 4 33 91 81 55 2 5 7 2 0 0 12 100 100 100 100 100 94 7 0 8 66 95 100 100 100 33 0 0 0 0 0 0 0 0 0 0 0 0 0
0 0 0 5 5 4 0 0 1 88 53 99 46 12 73 80 5 8 78 5 0 7 71 72 67 0 0 0 0 0 0 77 95 100 100 100 92 66 4 0 0 0 0 0 0 0 0 0 0
3 0 0 0 0 32 39 83 100 99 85 4 1 60 65 5 5 13 68 5 5 18 19 19 17 2 2 0 0 0 0 6 93 100 100 99 100 100 8 4 0 0 0 0 0 0 0 0 0
5 3 3 4 0 14 100 100 34 90 100 92 96 83 16 47 61 76 91 74 79 86 100 100 100 71 85 61 8 2 0 0 0 0 2 5 14 85 94 26 27 5 5 5 0 0 0 0 0
0 0 0 0 2 9 100 75 60 53 100 100 100 99 86 34 44 24 88 100 53 89 73 37 6 12 9 5 45 1 5 74 15 2 0 0 5 62 100 96 98 100 100 85 8 0 0 0 0
0 0 0 0 0 0 1 22 87 26 43 3 7 5 4 15 5 14 80 5 18 36 52 5 6 5 2 2 13 52 22 39 69 6 9 60 15 94 97 98 38 87 72 78 5 7 5 0 0
4 0 0 0 0 3 0 0 5 90 100 72 74 22 5 4 1 0 2 0 0 0 3 1 0 0 0 0 0 0 0 2 75 84 92 96 98 81 9 5 6 29 9 27 100 54 5 0 6
0 0 0 0 0 0 0 0 0 0 0 1 5 6 25 6 5 3 0 0 3 3 0 0 0 0 0 0 0 0 0 0 1 5 2 47 22 12 99 35 5 20 5 0 5 54 40 0 25